Brisbane Airport Observation History
Time Wind Speed Temp Pressure Rel. Hum Rain
03/01:00pm NNE 12-14 kts 27.8°c 1010.3 hPa 61% 0.0mm
03/12:30pm NE 11-14 kts 27.4°c 1010.6 hPa 61% 0.0mm
03/12:00pm NNE 10-14 kts 27.4°c 1011.3 hPa 66% 0.0mm
03/11:30am NNE 10-14 kts 27.2°c 1011.7 hPa 66% 0.0mm
03/11:00am N 10-13 kts 27.5°c 1012.3 hPa 63% 0.0mm
03/10:30am N 8-10 kts 26.4°c 1012.6 hPa 65% 0.0mm
03/10:00am N 8-10 kts 25.8°c 1012.9 hPa 70% 0.0mm
03/09:30am N 7-10 kts 25.9°c 1012.8 hPa 71% 0.0mm
03/09:00am N 6-9 kts 25.3°c 1013.0 hPa 71% 0.0mm
03/08:30am WNW 4-6 kts 24.9°c 1013.1 hPa 74% 0.0mm
03/08:00am WSW 5-6 kts 23.7°c 1013.1 hPa 85% 0.0mm
03/07:30am SW 5-7 kts 22.4°c 1013.1 hPa 92% 0.0mm
03/07:00am SSW 5-7 kts 21.3°c 1012.8 hPa 95% 0.0mm
03/06:30am SSW 6-7 kts 20.2°c 1012.7 hPa 97% 0.0mm
03/06:00am SSW 4 kts 20.3°c 1012.4 hPa 96% 0.0mm
03/05:30am SSW 5 kts 20.3°c 1012.2 hPa 97% 0.0mm
03/05:00am SW 5-6 kts 19.9°c 1012.1 hPa 97% 0.0mm
03/04:30am SW 5-6 kts 20.3°c 1012.1 hPa 96% 0.0mm
03/04:00am SSW 4-6 kts 20.6°c 1012.0 hPa 96% 0.0mm
03/03:30am SSW 5-7 kts 21.0°c 1012.2 hPa 95% 0.0mm
03/03:00am SW 5-6 kts 20.8°c 1012.3 hPa 95% 0.0mm
03/02:30am SW 4-5 kts 20.7°c 1012.5 hPa 95% 0.0mm
03/02:00am WSW 6-7 kts 21.0°c 1012.6 hPa 95% 0.0mm
03/01:30am CALM 0 kts 21.1°c 1012.8 hPa 92% 0.0mm
03/01:00am W 4-5 kts 21.8°c 1012.9 hPa 92% 0.0mm
03/12:30am W 3-5 kts 21.8°c 1013.2 hPa 93% 0.0mm
03/12:00am NE 4-5 kts 22.6°c 1013.5 hPa 91% 0.0mm
Time Wind Speed Temp Pressure Rel. Hum Rain
02/11:30pm ENE 3-6 kts 21.8°c 1013.7 hPa 93% 0.0mm
02/11:00pm CALM 0 kts 22.5°c 1014.1 hPa 92% 0.0mm
02/10:30pm E 1-4 kts 23.0°c 1014.2 hPa 88% 0.0mm
02/10:00pm ENE 5-6 kts 23.8°c 1014.0 hPa 85% 0.0mm
02/09:30pm ENE 5 kts 23.7°c 1014.3 hPa 84% 0.0mm
02/09:00pm ENE 4-6 kts 23.8°c 1014.3 hPa 85% 0.0mm
02/08:30pm E 6-9 kts 24.0°c 1014.0 hPa 84% 0.0mm
02/08:00pm E 5-7 kts 24.2°c 1014.1 hPa 81% 0.0mm
02/07:30pm E 6-9 kts 24.4°c 1014.1 hPa 83% 0.0mm
02/07:00pm E 5-7 kts 24.4°c 1014.1 hPa 78% 0.0mm
02/06:30pm E 5-6 kts 24.4°c 1014.1 hPa 76% 0.0mm
02/06:00pm ENE 6-8 kts 24.8°c 1013.8 hPa 71% 0.0mm
02/05:30pm E 6-9 kts 24.9°c 1013.8 hPa 74% 0.0mm
02/05:00pm E 7-9 kts 25.3°c 1013.7 hPa 71% 0.0mm
02/04:30pm ENE 8-11 kts 25.8°c 1013.6 hPa 68% 0.0mm
02/04:00pm ENE 8-10 kts 26.6°c 1013.5 hPa 62% 0.0mm
02/03:30pm NE 10-13 kts 26.7°c 1013.1 hPa 62% 0.0mm
02/03:00pm ENE 8-12 kts 27.6°c 1013.3 hPa 57% 0.0mm
02/02:30pm ENE 7-11 kts 26.6°c 1013.6 hPa 61% 0.0mm
02/02:00pm ENE 8-10 kts 26.9°c 1013.5 hPa 59% 0.0mm
02/01:30pm ENE 7-10 kts 27.4°c 1014.2 hPa 61% 0.0mm
02/01:00pm ENE 7-12 kts 27.0°c 1014.4 hPa 64% 0.0mm
02/12:30pm ENE 9-14 kts 27.1°c 1014.6 hPa 61% 0.0mm
02/12:00pm E 7-10 kts 27.4°c 1014.9 hPa 63% 0.0mm
02/11:30am ESE 7-11 kts 26.7°c 1015.5 hPa 60% 0.0mm
02/11:00am SE 8-11 kts 26.9°c 1015.6 hPa 56% 0.0mm
02/10:30am SE 8-13 kts 27.0°c 1016.2 hPa 56% 0.0mm
02/10:00am SE 6-8 kts 26.1°c 1016.5 hPa 65% 0.0mm
02/09:30am SE 6-10 kts 26.2°c 1016.7 hPa 64% 0.0mm
02/09:00am SSE 6-8 kts 26.1°c 1016.6 hPa 64% 0.0mm
02/08:30am SSW 5-7 kts 24.7°c 1016.6 hPa 71% 0.0mm
02/08:00am SSW 5-7 kts 23.7°c 1016.6 hPa 74% 0.0mm
02/07:30am SW 6-8 kts 22.5°c 1016.4 hPa 78% 0.0mm
02/07:00am SW 7-9 kts 21.0°c 1016.2 hPa 84% 0.0mm
02/06:30am SSW 6-8 kts 20.1°c 1016.0 hPa 89% 0.0mm
02/06:00am SSW 7-9 kts 19.3°c 1016.1 hPa 91% 0.0mm
02/05:30am SW 6-7 kts 19.2°c 1016.0 hPa 91% 0.0mm
02/05:00am SSW 5-6 kts 19.8°c 1015.7 hPa 89% 0.0mm
02/04:30am SSW 6-7 kts 19.9°c 1015.5 hPa 89% 0.0mm
02/04:00am SW 6-8 kts 20.2°c 1015.4 hPa 89% 0.0mm
02/03:30am SSW 6-7 kts 21.1°c 1015.2 hPa 84% 0.0mm
02/03:00am SSW 5-6 kts 20.9°c 1015.6 hPa 87% 0.0mm
02/02:30am SSW 5-6 kts 21.5°c 1015.8 hPa 84% 0.0mm
02/02:00am SSW 5-7 kts 21.8°c 1016.1 hPa 83% 0.0mm
02/01:30am S 5-6 kts 21.7°c 1016.3 hPa 83% 0.0mm
02/01:00am SSW 5-7 kts 22.0°c 1016.6 hPa 82% 0.0mm
02/12:30am SSW 5-6 kts 21.8°c 1017.1 hPa 83% 0.0mm
02/12:00am SSW 7-8 kts 21.6°c 1017.3 hPa 86% 0.0mm
Time Wind Speed Temp Pressure Rel. Hum Rain
01/11:30pm SSW 6 kts 21.5°c 1017.3 hPa 86% 0.0mm
01/11:00pm SSW 4-5 kts 22.3°c 1017.3 hPa 81% 0.0mm
01/10:30pm S 3-5 kts 22.9°c 1017.5 hPa 78% 0.0mm
01/10:00pm SE 5-8 kts 23.7°c 1017.5 hPa 75% 0.0mm
01/09:30pm SE 6-13 kts 24.1°c 1017.5 hPa 73% 0.0mm
01/09:00pm ESE 6-9 kts 24.0°c 1017.5 hPa 75% 0.0mm
01/08:30pm ESE 6-9 kts 24.2°c 1017.3 hPa 74% 0.0mm
01/08:00pm ESE 6-8 kts 24.4°c 1017.1 hPa 73% 0.0mm
01/07:30pm ESE 7-11 kts 24.4°c 1016.9 hPa 73% 0.0mm
01/07:00pm ESE 7-11 kts 24.6°c 1016.6 hPa 73% 0.0mm
01/06:30pm ESE 9-15 kts 24.9°c 1016.5 hPa 72% 0.0mm
01/06:00pm SE 9-13 kts 25.1°c 1016.4 hPa 67% 0.0mm
01/05:30pm SE 8-15 kts 25.3°c 1016.2 hPa 68% 0.0mm
01/05:00pm SE 9-14 kts 25.7°c 1016.0 hPa 65% 0.0mm
01/04:30pm SE 9-15 kts 26.1°c 1015.6 hPa 65% 0.0mm
01/04:00pm SE 10-15 kts 26.5°c 1015.3 hPa 61% 0.0mm
01/03:30pm ESE 11-16 kts 26.8°c 1015.3 hPa 58% 0.0mm
01/03:00pm ESE 10-16 kts 27.0°c 1015.3 hPa 61% 0.0mm
01/02:30pm ESE 9-16 kts 27.4°c 1015.4 hPa 54% 0.0mm
01/02:00pm ESE 11-18 kts 27.3°c 1015.4 hPa 55% 0.0mm
01/01:30pm SE 11-18 kts 27.4°c 1015.5 hPa 57% 0.0mm
01/01:00pm ESE 11-16 kts 27.7°c 1015.9 hPa 53% 0.0mm
01/12:30pm ESE 11-19 kts 28.0°c 1016.2 hPa 54% 0.0mm
01/12:00pm SE 10-15 kts 27.7°c 1016.5 hPa 56% 0.0mm
01/11:30am SE 11-17 kts 27.8°c 1016.9 hPa 54% 0.0mm
01/11:00am ESE 8-15 kts 27.7°c 1017.4 hPa 56% 0.0mm
01/10:30am SE 9-14 kts 28.0°c 1017.7 hPa 55% 0.0mm
01/10:00am SE 8-14 kts 27.4°c 1017.8 hPa 57% 0.0mm
01/09:30am SE 7-14 kts 26.2°c 1017.8 hPa 61% 0.0mm
01/09:00am S 8-13 kts 26.1°c 1017.8 hPa 61% 0.0mm
01/08:30am SSW 8-11 kts 25.1°c 1017.9 hPa 66% 0.0mm
01/08:00am SSW 8-10 kts 23.8°c 1017.9 hPa 73% 0.0mm
01/07:30am SSW 7-9 kts 22.6°c 1017.8 hPa 78% 0.0mm
01/07:00am SW 7-9 kts 21.2°c 1017.7 hPa 86% 0.0mm
01/06:30am SSW 7-8 kts 20.6°c 1017.5 hPa 88% 0.0mm
01/06:00am SSW 8-9 kts 20.4°c 1017.0 hPa 88% 0.0mm
01/05:30am SW 8-9 kts 20.0°c 1016.7 hPa 89% 0.0mm
01/05:00am SSW 8-9 kts 20.7°c 1016.4 hPa 87% 0.0mm
01/04:30am SSW 7-9 kts 20.2°c 1016.2 hPa 89% 0.0mm
01/04:00am SW 6-8 kts 20.0°c 1016.1 hPa 90% 0.0mm
01/03:30am SSW 6-8 kts 20.4°c 1015.9 hPa 88% 0.0mm
01/03:00am SSW 7-8 kts 20.5°c 1015.8 hPa 87% 0.0mm
01/02:30am SSW 5-7 kts 21.6°c 1015.8 hPa 81% 0.0mm
01/02:00am SSW 6-7 kts 21.9°c 1016.0 hPa 80% 0.0mm
01/01:30am SSW 3-4 kts 22.2°c 1016.2 hPa 81% 0.0mm
01/01:00am SSW 3-4 kts 21.6°c 1016.3 hPa 87% 0.0mm
01/12:30am SSW 4-5 kts 22.4°c 1016.2 hPa 82% 0.0mm
01/12:00am SSE 4-6 kts 22.4°c 1016.3 hPa 84% 0.0mm